Starlink 2432

operational
NORAD ID: 47840 Int'l Des: 2021-018 Owner: SPXS Country: US Constellation: starlink
LEOCIRCULARSTARLINK_TYPE

About Starlink 2432

Description loading...

Live Position

Loading 3D Globe...

Upcoming Passes

Altitude History

Altitude vs Time

uPlot chart will show altitude changes over time

Two-Line Element Set

1 47840U 21018BF 26102.31472514 .00001221 00000-0 10083-3 0 9994
2 47840 53.0556 80.6701 0001202 83.0754 277.0372 15.06394281281944
Epoch: Apr 12, 2026 • Age: 22 hours

Current Status

Altitude 548.1 km
Velocity 7.59 km/s
Sub-Earth Point 28.11°N, 168.5°E
Launch Date Mar 11, 2021
Age 5 years
Type internet

Technical Details

Classification Payload
Mass 260.00 kg
Dry Mass 248.00 kg
Total Mass 260.00 kg
Length 0.20 m
Diameter 2.80 m
Span 9.00 m
Shape Box + pan
Manufacturer SPXS
Bus Type Starlink
Phase Status In Orbit
Owner/State SPXS/US

Large Constellations

Loading constellations...